C/2017 U2 ( Fuls )

Japanese version
Home page
Updated on November 23, 2017

---------------------------------------------------------------------

* Profile

Discovery Date October 22, 2017
Magnitude 21.2 mag
Discoverer D. C. Fuls (Mount Lemmon)

* Orbital Elements

Epoch 2017 Sept. 4.0 TT = JDT 2458000.5
T 2017 Aug. 29.46015 TT                                 MPCW
q   6.7018451            (2000.0)            P               Q
z  -0.0001686      Peri.  147.83338     +0.75637857     +0.41920943
 +/-0.0002039      Node   149.70700     -0.56259233     +0.02524127
e   1.0011297      Incl.   95.44002     +0.33373841     -0.90753861
From 40 observations 2017 Sept. 8-Oct. 28, mean residual 0".5.

* Magnitudes Graph

        m1 = 8.5 + 5 log d + 10.0 log r

---------------------------------------------------------------------

The orbital elements are published on M.P.E.C. 2017-V13.
The magnitudes graphs are made with Comet for Windows.

---------------------------------------------------------------------

Copyright(C) Seiichi Yoshida (comet@aerith.net). All rights reserved.